Theta_e
326 319 317 316 312 314 312 305 301 298 294 290 287 292 295 293 294 295 296 296 298 297 298 296 296 300 301 300 300 299 298 298 297 297 301 310 311 315 322 330 328 329 335 338 342 346 349 348 352 353 355 354 354 353 353 353 352 351 350 349 348 347 347 349 348 348 348 347 347 347 348 348 348 348 348 348 348 349 349 349 349 349 348 347 347 347 346 346 345 345 344 343 342 341 340 339 339
319 318 313 315 317 315 310 299 293 289 288 289 292 287 292 291 294 293 296 297 299 301 296 296 297 296 296 297 296 299 300 299 300 305 306 309 312 314 317 327 328 332 334 339 343 345 348 351 349 353 355 354 354 353 353 352 352 350 350 348 347 347 348 348 348 348 347 347 347 348 348 348 348 348 347 347 348 348 348 348 348 348 348 348 347 347 347 346 345 344 344 343 342 340 339 338 337
318 317 317 313 313 308 304 300 300 284 287 287 290 291 291 294 294 295 294 296 298 297 293 294 296 298 300 301 301 300 303 301 298 299 303 309 316 313 319 325 328 333 336 340 343 345 347 348 346 353 354 354 354 353 353 352 351 350 350 348 348 347 348 348 348 347 346 347 347 348 348 348 347 348 348 348 348 348 348 348 348 348 347 346 346 347 346 346 344 343 343 342 340 338 338 337 336
316 316 311 311 311 303 299 292 289 287 288 286 289 291 290 294 294 293 293 294 294 293 296 301 302 301 301 298 302 300 300 303 302 306 306 317 315 315 319 325 328 333 337 340 343 344 347 346 344 352 354 354 353 353 353 352 351 350 349 348 348 347 348 348 348 347 346 346 346 348 347 348 347 348 347 347 347 347 348 348 348 347 347 346 345 347 346 345 344 342 341 340 339 337 336 335 334
314 316 310 307 304 303 295 291 288 287 288 285 290 291 291 292 294 292 293 292 292 293 296 300 299 301 302 302 300 303 308 306 308 306 310 312 315 316 320 327 331 334 337 340 342 344 347 343 344 349 353 354 353 353 353 352 352 350 350 349 348 347 347 348 348 347 347 347 347 348 347 348 348 348 347 347 347 347 348 347 347 346 346 346 345 345 345 344 342 341 340 339 337 335 334 333 331
310 312 308 309 307 301 296 294 292 293 290 289 291 297 293 292 293 292 294 294 295 293 298 296 302 302 302 301 300 305 302 306 311 310 311 316 317 318 324 331 333 334 337 339 341 344 347 341 342 347 353 354 353 353 353 352 351 350 350 348 347 347 347 347 347 347 347 347 347 348 348 348 348 347 347 347 346 347 347 347 347 346 345 344 344 344 344 342 340 340 339 338 337 335 333 331 330
312 307 305 306 301 299 294 287 290 289 297 291 295 292 293 294 291 292 295 297 297 297 294 301 296 299 299 299 301 303 303 309 313 314 314 318 317 320 328 332 333 333 335 339 341 343 345 340 345 348 351 352 353 353 353 352 351 350 349 348 348 348 348 348 348 347 348 347 347 348 348 348 347 347 347 346 346 346 346 346 346 346 345 344 343 342 343 341 340 340 340 338 336 333 332 330 328
311 310 302 299 295 292 290 287 291 289 296 290 294 293 292 291 289 292 294 296 297 299 298 293 295 300 302 298 301 305 300 303 313 313 314 316 315 325 330 332 332 331 333 335 339 342 338 339 343 347 350 352 351 352 353 352 351 351 350 348 348 348 348 347 348 348 347 347 347 347 348 347 347 347 347 346 346 346 346 346 346 345 344 343 342 341 341 340 339 341 339 337 334 332 330 328 327
305 304 297 300 291 288 287 292 292 289 291 291 294 293 300 299 292 295 296 295 297 294 294 298 297 297 297 298 299 303 302 304 306 309 316 318 319 327 330 331 330 331 334 336 337 340 342 337 341 345 347 351 351 352 352 352 351 351 349 348 348 348 347 347 347 349 347 347 347 347 347 347 347 347 347 347 346 346 346 345 345 344 343 342 341 340 340 339 339 340 339 336 334 331 328 326 325
305 302 296 294 290 293 284 290 292 294 292 292 292 294 292 291 292 293 296 296 298 295 297 295 295 300 298 300 299 306 307 303 303 316 319 316 319 327 329 329 329 331 334 337 338 339 341 335 337 342 344 348 350 351 352 351 351 351 349 349 348 348 348 348 348 349 348 348 349 348 347 347 347 347 347 346 345 344 344 343 344 343 342 341 340 340 339 339 338 341 338 335 332 330 327 324 324
301 296 294 293 284 287 289 288 286 290 291 291 292 293 293 291 293 293 294 295 292 295 295 294 299 300 298 300 300 305 303 301 309 313 315 315 320 328 329 326 328 332 333 336 338 340 340 341 334 338 340 343 346 349 350 349 351 351 350 349 349 349 348 349 349 349 349 349 349 348 347 347 347 346 346 346 345 344 344 344 344 343 342 341 341 340 339 338 340 339 336 334 332 329 326 325 324
299 293 292 283 285 288 286 287 287 289 291 289 297 294 295 293 293 296 295 297 294 293 296 297 300 298 298 295 305 306 301 303 303 306 309 312 319 319 329 323 326 331 334 335 338 339 340 341 341 336 335 339 340 344 346 347 348 348 349 349 349 348 348 348 348 348 348 348 349 348 349 347 347 346 346 345 345 344 344 343 343 342 342 341 339 338 338 339 338 337 334 332 330 329 327 324 323
295 289 288 287 288 287 285 287 288 292 289 292 296 296 292 294 297 295 294 293 290 294 298 297 299 300 298 301 302 297 302 301 303 308 310 313 316 316 317 319 324 329 333 335 336 337 339 340 341 341 339 333 335 337 339 342 344 346 347 348 347 347 347 347 347 347 347 347 348 347 347 346 345 346 346 345 344 343 342 342 341 342 340 338 337 337 338 338 336 334 332 330 329 327 326 324 322
296 291 292 289 284 285 286 291 287 293 291 294 290 292 292 296 295 295 293 295 294 296 298 298 299 299 303 297 298 294 297 302 305 309 311 315 315 316 318 317 323 328 330 333 335 337 337 339 340 341 342 343 344 339 334 336 340 343 344 345 344 344 344 345 345 344 345 344 344 342 341 341 342 343 344 344 344 342 342 343 342 341 338 337 337 336 337 336 334 332 331 329 328 326 325 323 322
301 292 288 286 283 287 286 291 291 287 295 294 295 293 293 297 293 291 297 292 298 295 296 298 302 300 296 297 297 301 300 300 307 310 312 315 315 315 317 318 317 319 325 330 334 335 336 337 339 340 341 343 344 344 344 342 334 338 340 340 340 342 342 341 340 341 340 340 340 338 337 335 335 337 336 338 340 338 337 334 338 340 338 337 336 336 336 335 333 331 330 329 327 326 323 321 319
296 291 287 289 286 286 289 288 284 288 295 290 294 289 292 296 292 297 296 298 298 299 295 302 300 300 298 299 302 299 299 303 309 310 316 315 312 315 314 317 317 316 319 327 331 333 334 336 337 339 341 342 344 344 344 344 335 332 336 338 338 339 338 338 337 338 334 333 332 332 332 335 332 337 329 337 333 335 332 334 333 339 339 336 336 335 335 334 332 331 329 328 326 324 321 318 319
295 293 291 283 288 286 289 289 288 293 291 290 291 292 296 295 295 292 294 296 298 297 292 297 301 298 298 301 297 296 299 307 310 310 309 310 311 312 314 314 314 317 317 324 326 330 332 334 336 337 340 341 343 343 343 343 342 330 334 332 332 334 335 334 335 331 327 327 327 326 327 339 340 341 337 341 327 337 323 326 331 336 337 337 337 335 334 333 331 330 328 327 325 321 316 314 312
292 287 285 287 286 286 288 291 290 294 294 295 293 291 295 293 294 298 296 295 289 292 295 295 295 295 298 299 295 296 298 301 304 306 305 306 308 309 310 310 312 312 314 317 321 327 330 333 334 336 338 340 342 342 343 343 343 337 344 343 339 336 333 331 335 341 330 338 324 330 336 339 340 338 338 330 335 332 328 323 326 331 335 334 333 335 334 332 331 329 328 327 322 317 310 308 305
288 286 288 288 284 290 291 291 291 293 294 292 292 290 293 295 294 296 296 294 291 296 296 294 295 296 296 296 296 298 298 299 299 300 300 300 302 302 302 305 305 307 308 312 316 319 327 331 333 334 336 339 340 342 342 343 343 342 343 343 342 335 337 338 340 338 337 337 337 338 335 340 338 337 335 333 332 324 329 323 325 329 331 330 330 332 334 332 330 329 328 324 317 311 307 305 302
292 291 290 285 287 289 289 291 294 292 294 295 294 292 292 295 295 295 297 294 291 295 297 295 294 297 295 294 297 298 298 298 299 298 298 298 299 299 299 300 301 303 304 306 307 312 317 326 331 334 335 337 339 340 341 343 343 342 341 343 343 342 340 340 341 339 337 335 335 336 337 338 337 337 325 322 325 329 327 321 323 324 324 324 324 329 329 331 330 328 324 318 310 306 304 300 301
296 291 288 291 289 294 294 290 292 291 292 295 292 290 292 295 292 295 293 295 296 294 294 296 297 295 294 295 296 297 297 298 298 298 298 298 299 300 300 300 300 302 303 304 306 307 310 317 327 332 335 337 338 338 340 341 342 342 342 340 340 344 343 341 340 339 339 336 336 337 337 337 338 337 334 334 334 331 328 328 329 332 333 333 323 330 330 329 323 320 318 311 309 308 304 300 301
294 294 291 292 290 294 294 291 291 292 290 292 290 294 297 294 292 292 294 293 294 296 297 293 293 293 295 296 297 297 296 296 297 297 297 297 298 298 300 301 302 302 303 304 306 306 308 310 318 329 333 335 337 338 339 340 340 341 341 341 341 340 338 336 339 339 337 337 336 337 336 336 335 333 332 330 328 331 330 329 330 329 332 331 329 328 326 324 319 316 314 312 306 303 302 301 301
295 290 291 291 291 295 295 291 291 291 293 293 293 295 293 292 294 292 294 295 295 292 292 294 294 295 297 296 296 295 295 295 295 296 297 297 297 298 299 300 301 302 303 306 308 309 309 308 313 324 330 334 335 338 339 339 339 339 341 342 341 340 340 338 336 335 337 338 338 337 336 334 333 333 332 332 329 328 327 325 324 327 329 328 324 326 321 318 318 315 313 308 303 304 302 302 301
294 293 291 295 291 295 293 297 290 291 293 294 293 291 294 292 294 290 293 293 291 293 296 296 296 296 296 295 295 294 294 295 295 296 297 296 297 298 299 299 301 302 306 307 309 310 311 310 310 318 327 332 334 337 338 338 339 338 338 337 339 337 337 338 335 333 334 335 335 335 336 335 332 332 331 329 329 329 330 328 325 323 323 323 322 323 318 314 315 313 310 304 304 303 304 303 303
294 293 291 293 291 292 292 290 289 289 291 292 290 293 294 293 293 292 293 292 292 295 296 295 295 295 295 294 294 294 294 294 294 295 296 297 297 298 299 300 301 304 304 306 309 311 312 311 310 316 325 330 334 336 336 337 337 338 337 338 339 332 339 340 338 332 332 330 329 330 333 334 332 332 331 329 328 327 323 323 323 321 320 318 320 317 317 315 314 313 311 307 304 304 304 304 303
293 293 291 289 290 290 290 290 290 291 291 289 292 292 292 290 291 292 291 291 293 295 295 294 294 293 293 293 293 293 293 293 294 294 295 296 297 297 298 298 301 301 303 306 308 310 312 314 313 317 323 328 333 335 335 336 336 336 337 336 336 333 340 339 335 333 331 329 327 327 327 330 333 332 329 326 327 324 322 319 319 319 321 320 318 318 315 317 315 312 310 307 304 304 305 302 302
292 291 290 292 292 290 291 291 292 289 291 289 292 292 291 291 293 292 292 290 292 295 293 293 293 292 292 293 293 293 293 293 293 294 295 295 295 295 297 297 298 300 304 305 307 309 312 315 314 314 320 324 330 333 334 334 334 333 331 335 334 331 331 332 331 331 330 328 327 325 326 326 329 329 326 324 325 324 321 321 322 321 322 321 320 317 314 317 315 315 313 309 307 304 303 301 302
290 292 290 289 288 290 290 289 289 290 293 288 292 290 290 290 291 291 292 291 294 293 292 292 292 292 292 292 292 293 293 293 294 294 292 293 293 294 295 295 296 298 301 303 305 309 312 314 316 316 320 324 326 331 329 332 332 331 330 331 331 330 330 328 328 330 327 328 327 323 322 325 328 328 325 322 321 321 320 319 320 320 322 319 319 318 315 314 313 310 309 307 305 306 305 303 301
290 290 293 288 289 293 291 291 289 290 293 288 290 291 291 289 289 292 291 292 294 292 291 291 291 291 291 292 292 292 292 293 293 293 292 293 294 294 294 296 296 297 300 302 305 308 310 312 315 317 321 323 326 326 327 329 330 331 330 330 328 327 325 324 323 323 323 323 322 322 322 320 320 320 322 322 317 319 318 318 318 318 319 317 316 315 313 311 310 309 307 306 306 306 308 308 304
291 289 288 291 288 290 291 289 289 291 292 286 291 290 288 289 290 290 291 291 292 292 291 290 290 290 291 291 292 292 292 292 292 292 293 293 294 294 294 295 296 297 298 300 304 305 308 311 314 315 317 318 319 321 321 321 322 320 319 320 319 321 320 319 319 319 319 319 318 318 317 317 318 318 318 317 318 317 316 316 316 315 314 314 314 315 315 314 313 312 309 310 308 308 309 306 306
293 289 286 286 286 286 289 289 288 293 290 288 292 290 289 288 290 291 290 289 292 290 290 290 289 289 290 290 291 291 291 292 291 292 292 293 293 294 294 295 295 296 297 298 300 304 307 309 312 314 315 316 318 318 317 316 316 316 316 316 316 316 316 316 316 316 316 316 317 316 317 316 316 316 316 316 315 316 315 313 313 311 310 310 311 311 312 311 311 311 308 312 308 307 305 304 303
284 288 285 281 286 286 287 291 288 291 291 288 292 287 290 290 290 291 291 291 291 289 289 289 288 289 289 290 290 290 290 291 291 291 292 292 293 293 294 294 295 295 296 296 298 302 305 306 309 312 315 316 316 315 316 315 315 314 313 311 312 312 312 311 312 312 313 313 313 313 313 313 314 315 316 316 315 315 314 312 310 310 310 310 308 309 310 308 307 306 302 304 308 309 307 308 303
281 287 284 284 283 284 288 291 287 289 289 289 290 288 285 290 289 291 291 290 290 288 288 288 288 288 289 289 289 289 290 290 290 290 291 291 292 293 293 294 294 295 295 296 296 299 301 303 304 308 310 313 314 314 314 313 312 310 309 308 307 307 307 307 307 307 308 308 309 309 310 310 311 312 313 313 313 312 312 310 310 310 310 309 309 309 308 307 307 306 301 300 302 304 304 303 304
285 283 284 283 285 284 286 288 290 289 290 290 290 289 287 289 288 290 291 290 289 288 288 288 288 289 289 289 289 288 288 288 288 289 290 290 291 292 293 294 294 294 295 295 296 297 298 299 300 302 305 309 311 311 310 309 308 307 306 304 303 301 301 301 301 301 302 303 303 304 305 306 307 308 309 310 310 309 309 308 308 309 309 309 309 308 306 306 306 306 305 300 300 301 301 301 301
282 284 284 285 283 284 287 286 289 290 289 290 288 288 290 291 289 290 289 289 288 287 288 288 288 288 288 288 288 288 288 288 288 289 289 290 290 291 292 293 293 293 294 294 295 296 297 298 299 299 300 303 305 306 307 307 305 304 303 301 300 299 298 298 297 297 297 298 298 298 299 301 302 304 305 306 307 307 306 306 306 307 308 308 307 305 304 304 304 304 307 305 299 299 301 299 299
285 283 283 282 285 286 284 287 287 289 289 289 287 290 292 292 288 289 289 289 288 288 288 288 288 288 288 287 287 287 287 287 289 289 289 289 290 290 291 292 292 293 293 293 294 294 295 296 297 297 298 300 302 302 304 302 301 300 299 298 297 296 296 295 295 294 295 295 295 295 296 297 298 299 301 302 303 303 304 305 305 307 307 306 305 304 304 304 304 304 302 302 302 300 296 296 296
285 283 283 284 285 286 286 286 288 287 289 289 289 288 287 289 287 288 289 289 288 287 287 287 287 287 287 287 287 287 287 287 289 289 288 288 289 289 290 290 291 292 292 292 293 293 293 293 295 295 296 298 298 298 298 299 299 297 296 295 294 294 294 294 293 293 292 293 293 294 294 294 295 296 297 298 299 299 300 300 301 302 304 303 302 301 301 299 299 300 299 299 299 300 300 296 295
287 285 285 285 284 286 287 289 288 287 289 285 284 286 289 289 287 288 288 288 287 287 286 286 287 287 287 286 286 286 287 288 288 288 287 288 288 288 289 289 290 289 290 291 291 292 292 293 293 294 295 296 296 297 297 296 296 296 294 293 293 292 292 291 291 291 291 291 291 292 292 293 293 294 295 296 296 297 297 297 297 297 298 299 299 299 298 297 297 297 298 298 298 296 298 295 295
285 286 284 284 286 285 286 288 287 287 288 287 284 287 289 288 285 287 286 286 286 287 287 287 286 286 286 286 286 285 286 286 286 286 287 286 287 287 288 288 288 288 289 289 291 291 292 292 292 293 294 295 295 296 296 295 295 296 295 294 293 291 292 291 290 290 290 289 289 290 290 291 292 292 293 294 294 294 295 295 295 296 296 297 296 296 296 296 296 295 296 295 296 298 295 295 295
285 284 284 285 285 286 285 287 286 287 287 287 285 286 290 285 285 286 286 286 285 286 286 285 286 285 284 284 284 284 284 285 284 285 285 285 286 286 286 287 287 288 288 288 289 290 291 291 291 292 292 293 294 295 295 295 294 294 293 293 292 291 290 290 289 289 289 288 287 288 289 289 289 290 291 292 292 293 293 293 294 294 294 295 295 294 294 294 294 294 295 295 295 294 295 296 294
284 285 285 285 285 285 288 286 286 285 286 284 286 285 286 286 286 284 286 287 286 285 286 285 286 286 286 285 285 285 283 283 284 284 284 284 284 285 285 286 287 286 286 287 288 289 289 290 290 291 291 292 292 293 294 294 294 293 292 291 291 290 289 288 288 287 287 287 287 287 287 288 288 288 289 289 290 290 291 292 292 292 293 293 294 293 293 293 293 293 293 294 293 292 293 293 295
283 283 287 288 286 286 285 285 288 284 285 284 285 281 279 281 283 284 285 285 285 284 284 284 285 285 285 284 284 284 284 284 283 283 283 283 284 284 285 285 285 285 286 286 287 288 288 289 289 290 290 291 291 291 292 292 291 291 290 288 286 286 285 285 284 284 285 285 285 287 287 288 288 288 288 288 289 289 289 289 290 290 290 291 291 292 292 292 292 292 292 293 293 293 292 293 292
285 287 286 288 286 285 285 285 286 281 281 286 282 283 278 282 283 283 283 283 283 284 283 284 284 284 284 284 283 283 283 283 284 283 283 283 283 284 284 284 284 285 285 286 286 286 287 288 288 289 289 289 290 289 290 289 288 287 286 286 286 285 284 284 286 286 286 286 287 286 287 287 288 288 288 288 288 288 288 288 288 289 289 289 289 290 289 290 291 291 292 292 292 292 293 292 291
284 285 284 285 286 286 284 284 285 282 282 284 283 283 281 280 284 282 283 283 282 283 284 284 285 284 283 283 283 283 283 283 282 282 282 282 283 282 282 283 283 284 284 285 285 286 286 286 287 287 288 288 288 288 288 288 287 287 286 286 286 285 285 284 285 285 287 287 286 286 286 286 287 287 287 287 288 288 288 287 288 288 288 288 288 288 288 289 290 290 291 291 291 291 291 291 291
285 285 284 285 286 284 283 285 283 281 283 281 281 284 282 278 280 282 283 283 282 283 283 284 284 284 283 283 283 283 283 282 282 282 282 282 282 282 282 283 283 284 284 284 284 285 285 286 286 286 286 286 287 288 287 287 287 286 286 286 285 285 285 285 286 286 286 286 285 286 286 286 286 287 287 287 287 287 287 287 287 287 287 287 287 287 288 288 288 288 288 289 289 289 289 290 290
286 283 283 282 282 282 283 281 283 280 281 276 280 283 279 279 280 282 282 283 282 283 284 284 284 284 283 283 283 283 283 282 282 282 282 282 282 282 282 282 283 283 283 284 284 284 285 285 285 285 285 286 286 286 286 286 287 287 286 286 285 284 285 285 286 285 285 286 285 285 286 285 286 286 286 287 287 287 287 287 286 286 286 286 286 286 287 287 287 287 287 288 288 287 288 288 288
284 285 285 283 280 279 279 279 278 278 274 278 281 282 283 277 281 283 283 284 284 284 284 284 284 284 284 283 283 282 282 282 282 282 282 282 282 282 282 282 282 283 283 283 284 284 284 284 284 284 284 285 286 286 286 286 286 286 286 285 285 284 285 285 285 284 285 285 285 285 285 285 286 286 286 286 286 286 286 286 286 286 286 286 286 286 286 286 286 286 287 287 287 287 286 287 287
285 287 282 285 283 278 276 270 275 274 272 275 278 279 282 277 279 281 283 282 283 286 285 284 284 284 284 283 283 282 282 282 282 281 282 281 281 282 282 282 282 282 282 283 283 283 284 284 284 284 284 284 285 285 286 286 286 286 286 285 285 285 285 285 284 284 284 284 284 284 285 285 285 286 285 285 285 286 286 285 286 286 285 285 285 285 285 286 286 286 286 285 286 286 286 286 286
284 283 284 277 274 270 274 268 274 272 272 278 278 279 280 281 283 281 282 283 282 285 286 286 285 285 285 283 283 282 282 282 282 281 281 282 281 281 281 281 282 282 282 282 282 283 283 284 284 284 283 284 284 285 285 285 285 285 285 285 285 285 285 285 285 284 285 284 284 284 284 284 284 284 284 284 285 285 285 284 284 284 284 285 285 285 285 285 285 285 285 285 285 285 285 285 285
284 285 279 274 266 263 265 265 262 267 273 275 278 279 278 280 282 284 284 283 282 283 282 284 286 286 285 284 283 282 282 282 281 282 282 281 281 282 281 281 281 281 282 282 283 283 283 283 283 283 283 284 284 285 285 285 285 285 285 285 285 285 285 285 285 285 285 285 285 284 284 284 284 284 284 284 284 285 284 284 284 284 284 284 284 284 284 284 284 284 284 284 284 285 284 285 284
285 282 284 282 272 266 268 264 272 275 274 275 274 274 272 275 282 280 281 281 281 281 281 282 285 285 285 283 282 282 281 281 281 281 282 281 282 281 281 281 281 281 281 282 282 282 283 283 283 283 283 283 284 284 284 284 284 285 285 285 285 285 285 285 285 285 284 284 284 284 284 284 283 284 284 284 284 284 284 284 284 283 283 283 283 283 283 283 283 283 283 283 283 284 283 284 283
282 281 283 281 280 279 277 269 267 265 270 271 271 276 277 282 278 279 280 280 280 281 281 282 284 284 283 282 281 281 281 281 281 281 281 281 281 282 282 281 281 281 281 282 282 282 282 282 282 283 283 283 284 284 284 284 284 284 285 285 285 285 285 285 285 285 284 284 284 284 283 283 284 283 284 283 283 283 283 283 283 282 282 282 282 282 282 282 282 282 282 282 281 283 282 282 283
284 284 279 281 283 281 274 271 270 270 269 274 268 277 280 280 282 279 279 281 281 281 281 282 283 282 282 282 281 281 281 281 281 281 281 281 281 281 282 281 281 281 281 282 282 282 282 282 282 282 282 283 283 283 283 284 284 284 284 285 285 285 285 284 284 284 284 284 284 283 283 283 283 283 283 283 282 282 282 282 282 282 282 282 282 281 281 281 281 281 281 281 281 282 281 281 281
284 278 283 283 285 284 283 278 273 268 270 274 270 275 278 277 278 280 280 281 281 280 280 282 282 281 281 282 282 281 281 281 282 282 281 281 281 282 282 282 281 281 281 281 282 282 282 283 283 283 283 283 283 283 284 284 284 284 284 284 284 284 284 284 284 283 283 283 282 282 282 282 282 282 282 282 282 281 281 281 281 281 281 281 281 281 281 281 281 280 280 280 281 281 281 281 281
283 282 285 285 281 281 281 275 272 270 268 270 272 274 276 279 282 280 281 281 282 280 280 280 281 281 282 282 282 282 282 281 281 281 281 281 281 281 282 282 282 281 282 282 282 282 282 282 283 284 283 284 284 285 285 285 284 284 284 283 283 283 283 283 282 282 282 282 281 281 281 281 281 281 281 281 280 280 280 280 280 280 280 279 280 279 280 279 280 279 279 279 280 280 279 279 280
286 286 284 285 283 279 278 280 274 273 269 267 273 273 278 279 281 282 284 284 284 281 279 280 282 282 283 283 283 282 282 282 281 281 281 281 281 281 281 281 281 281 282 282 282 283 283 283 284 284 284 284 284 284 284 283 283 283 282 282 282 282 282 282 281 281 281 280 280 280 280 280 280 280 280 280 279 279 279 279 279 279 278 278 278 278 278 278 278 278 278 278 279 279 278 278 279
282 283 281 283 278 282 281 278 275 277 265 268 269 275 275 278 280 282 284 284 284 282 282 282 283 283 284 284 283 283 283 282 282 281 281 281 281 281 282 282 282 283 283 283 283 283 283 283 283 283 283 283 282 282 283 282 282 281 281 281 281 281 280 280 280 280 280 279 280 280 280 280 280 279 279 279 278 278 278 278 278 278 277 277 277 277 278 277 277 277 277 278 278 278 277 277 278
286 286 284 285 280 278 276 277 276 270 276 273 268 275 281 280 280 281 280 279 283 284 284 283 283 284 284 284 284 284 283 282 282 282 282 281 281 282 282 282 282 283 283 282 283 282 282 282 283 283 283 283 282 282 282 282 281 281 280 280 279 280 280 280 279 279 279 279 279 279 279 279 278 278 278 278 277 277 277 277 276 276 276 276 276 276 276 276 276 276 276 277 276 276 276 276 277
Wind_Speed
6 6 4 2 3 1 1 6 2 2 4 1 1 1 0 1 1 4 2 3 0 1 3 1 3 1 1 1 2 3 3 3 5 4 1 2 1 2 5 9 5 2 7 7 7 8 9 9 10 11 12 12 12 13 12 12 12 11 12 11 10 9 10 10 11 11 10 9 9 9 9 9 8 8 8 8 8 8 9 10 11 10 12 13 13 14 15 14 13 13 13 13 13 12 12 12 12
4 5 4 1 1 1 1 1 4 3 6 3 1 1 1 3 1 3 0 2 1 1 1 3 2 1 1 2 2 0 2 8 6 1 5 4 4 4 5 9 6 5 8 7 7 7 9 10 10 10 12 13 14 13 13 12 12 11 12 11 11 10 10 10 10 10 10 9 9 9 9 9 8 8 8 8 7 7 8 9 10 11 11 11 12 13 14 13 12 12 12 13 13 12 12 12 11
3 4 1 3 3 4 3 3 1 1 5 3 2 5 2 0 1 2 7 5 2 2 4 1 1 1 1 0 1 2 1 1 3 3 4 3 1 2 1 7 6 5 8 7 6 8 9 9 9 10 13 12 13 13 13 13 12 12 11 11 11 11 10 11 10 10 10 9 9 9 9 8 8 8 8 7 7 7 8 9 10 10 11 10 9 11 13 12 11 11 11 12 12 11 12 11 11
5 5 2 2 1 3 1 4 5 6 5 3 1 2 3 1 2 5 6 8 6 4 1 1 0 1 1 2 1 1 4 2 5 3 1 1 1 5 3 5 4 3 5 5 7 6 9 7 8 10 13 12 14 13 12 12 12 12 11 10 11 10 11 11 10 10 9 9 9 8 8 8 8 8 7 7 7 7 7 9 9 10 10 9 9 12 12 12 11 10 11 11 11 11 11 10 10
3 2 2 3 4 1 3 1 4 3 3 5 4 4 5 6 5 4 5 3 6 4 0 1 1 1 1 0 1 1 0 2 2 3 2 3 2 4 2 4 4 5 6 6 5 6 9 9 8 9 11 11 14 13 11 11 11 12 10 9 11 10 10 11 11 10 9 9 9 8 8 8 8 8 8 7 7 7 8 9 10 10 9 8 9 9 10 11 10 9 9 10 10 10 10 9 9
5 1 4 1 0 2 5 2 3 1 2 6 2 1 2 4 4 2 8 8 1 2 0 1 0 0 0 1 3 0 3 2 1 3 2 1 5 4 2 4 5 5 5 5 5 5 6 9 8 8 10 11 12 11 11 10 12 12 11 11 11 10 11 10 10 10 9 9 9 8 7 7 7 7 7 8 7 7 7 9 10 10 9 8 7 8 9 9 7 8 8 8 9 9 9 9 8
1 3 5 3 3 4 4 4 3 4 1 5 1 2 1 2 7 3 6 2 1 1 1 0 1 1 1 3 2 5 3 1 0 1 4 4 6 1 2 4 5 5 4 5 4 4 5 7 8 8 8 10 11 10 10 10 12 12 11 11 11 10 11 10 10 9 9 9 9 8 7 7 6 6 6 6 6 7 8 8 11 10 9 8 9 8 9 8 6 6 7 8 9 9 9 9 8
2 0 2 1 1 4 3 2 2 4 1 5 1 3 4 4 0 1 2 2 3 1 1 1 1 1 0 1 1 2 3 4 3 5 7 5 3 3 4 4 5 5 5 3 3 3 4 6 7 7 7 9 10 9 9 10 11 10 10 11 10 10 11 11 9 9 9 8 8 7 7 6 6 6 7 7 7 7 8 9 10 10 8 8 8 9 8 8 6 6 7 8 9 9 9 9 8
5 6 1 3 2 4 3 2 1 4 7 3 7 6 5 4 4 0 2 1 1 1 4 1 1 3 1 3 2 3 5 2 5 6 5 5 0 3 3 4 4 5 4 3 3 3 3 4 6 7 6 8 9 8 9 12 11 10 10 10 10 10 11 10 9 7 8 8 7 6 6 5 6 7 8 8 7 7 9 10 9 8 6 9 9 8 7 7 6 7 9 8 8 9 9 8 8
2 2 1 2 4 1 3 1 2 2 2 2 4 5 2 1 1 1 1 2 1 3 1 2 1 1 1 2 4 2 2 7 6 3 7 5 0 3 3 2 2 6 5 6 3 3 2 4 6 6 6 6 8 8 9 10 9 11 11 10 10 10 9 8 8 6 6 6 5 4 5 5 6 7 8 8 8 7 7 7 9 9 9 8 7 6 6 5 6 11 9 8 8 8 9 8 8
2 5 3 3 4 2 2 3 4 4 3 6 6 8 7 4 2 1 1 2 2 1 6 3 1 1 0 2 2 2 5 6 10 6 7 6 2 4 4 2 3 6 7 7 6 5 4 4 6 6 5 6 7 8 8 8 9 9 9 9 9 8 8 7 6 6 5 4 3 4 4 4 6 7 7 8 8 9 8 8 8 8 8 8 6 6 5 7 10 9 9 8 8 8 8 8 7
1 3 3 3 1 4 2 2 3 6 8 3 1 2 1 4 2 1 1 3 3 5 1 2 1 3 1 3 0 1 8 12 7 5 6 5 2 1 3 1 2 4 6 7 6 6 6 4 5 5 6 5 6 7 7 8 8 8 9 8 9 8 7 7 6 4 5 3 3 2 2 4 5 6 7 8 8 8 9 7 7 7 7 7 7 6 8 9 10 10 9 8 8 7 7 8 7
4 1 6 6 1 1 2 0 2 4 5 1 0 1 1 1 0 1 0 2 0 3 2 4 0 1 2 0 3 5 8 7 7 5 6 4 2 2 2 2 2 2 4 3 6 7 6 7 5 5 5 5 4 5 6 7 7 7 8 8 8 7 7 7 6 5 5 4 3 2 2 3 3 3 4 7 8 7 6 7 6 7 8 8 7 7 9 10 10 9 9 8 7 7 7 7 6
4 4 2 1 1 2 2 0 1 1 1 1 4 3 1 0 0 1 4 2 1 1 2 1 1 1 0 2 5 4 3 4 10 8 5 4 2 3 4 5 4 3 2 1 4 4 3 4 4 5 6 5 5 3 4 6 8 6 8 8 7 7 6 6 6 5 4 4 2 1 2 3 4 4 5 7 7 6 5 5 5 8 8 7 7 8 10 10 9 9 8 7 7 7 7 7 6
1 2 6 6 2 0 3 1 1 4 2 0 0 2 5 1 2 3 0 2 1 3 4 2 1 1 2 2 6 2 6 10 10 9 6 4 6 7 6 5 5 5 4 2 1 2 5 4 4 4 6 6 6 4 4 4 6 7 7 7 8 7 7 6 6 6 5 3 3 2 3 4 5 5 6 7 7 6 6 7 7 6 7 7 8 9 10 9 8 8 7 7 7 8 8 9 8
5 5 4 2 0 1 1 2 1 2 1 2 1 2 1 1 2 1 1 1 2 1 2 1 0 1 0 0 1 5 10 12 9 6 5 7 6 4 4 6 5 3 2 3 2 2 2 4 4 4 4 6 5 5 4 4 4 7 7 7 8 7 7 6 6 5 5 4 3 3 3 4 3 4 7 5 8 8 8 6 6 6 7 8 7 8 11 8 7 7 6 7 8 9 9 9 9
2 3 1 4 0 1 1 2 5 1 2 4 5 4 4 1 1 3 0 1 3 2 5 2 1 1 2 1 6 8 8 7 7 9 10 9 8 7 7 7 7 4 4 2 2 3 2 3 5 5 5 5 6 5 4 5 4 6 5 6 7 8 7 6 6 6 5 3 3 3 4 2 2 4 4 3 4 7 9 9 7 7 7 6 6 8 10 8 6 6 6 7 9 9 8 8 8
2 2 4 1 1 2 6 4 9 1 0 2 3 1 0 3 3 1 1 1 3 4 2 7 2 3 0 1 7 7 7 12 11 12 10 8 7 8 8 7 6 6 6 5 3 3 4 3 5 5 5 7 6 4 4 4 4 5 6 5 4 5 5 5 5 4 4 4 4 2 2 2 3 2 3 3 3 4 8 10 8 8 8 7 5 6 7 8 7 6 7 9 9 9 8 4 4
4 2 2 2 6 2 7 4 7 1 3 2 2 2 2 2 1 1 1 3 7 7 3 2 4 5 5 10 13 13 11 13 12 12 12 12 9 9 7 7 8 8 8 7 6 5 5 5 5 6 7 7 7 6 4 5 5 5 5 5 4 5 8 8 5 4 3 5 5 5 3 4 3 3 3 3 3 1 5 12 10 9 8 3 9 4 6 7 6 5 8 9 8 8 5 3 2
1 3 0 3 8 3 7 4 2 7 1 5 4 1 1 2 0 1 1 3 4 3 7 5 1 1 7 7 10 10 11 10 12 12 12 10 9 8 8 9 8 7 8 6 8 7 5 5 6 7 8 8 8 7 5 4 5 5 4 6 6 4 4 6 8 6 4 3 3 2 3 4 4 3 5 8 6 3 2 5 10 10 5 8 7 4 7 7 7 8 9 8 4 2 2 2 2
1 2 2 1 4 0 1 8 8 5 2 2 1 1 1 2 5 0 2 5 1 3 6 3 5 5 6 7 8 10 10 12 12 11 11 11 8 6 6 6 6 8 7 8 6 6 7 6 6 6 7 7 8 7 6 5 5 5 5 2 3 6 6 5 5 6 7 6 6 5 5 5 5 4 4 4 5 5 5 4 4 5 4 4 7 5 5 5 4 4 3 3 2 2 3 2 2
3 2 1 5 3 1 3 7 3 2 2 2 1 5 3 1 2 1 1 3 7 1 3 3 4 5 5 8 7 8 10 12 12 12 12 11 10 11 9 7 5 4 6 6 8 8 7 7 7 6 7 7 7 7 7 4 5 5 4 6 4 1 3 3 4 6 5 7 5 5 5 5 4 4 5 5 4 4 5 4 5 3 3 5 5 4 5 6 4 3 3 2 2 2 2 2 2
1 2 1 4 3 1 1 2 4 2 0 1 4 2 2 2 2 1 2 3 2 6 4 7 6 5 5 5 5 8 10 11 10 10 10 11 11 10 9 7 8 9 7 8 9 8 8 6 6 6 6 6 7 5 6 5 4 4 6 6 6 7 8 3 1 0 3 6 7 7 6 5 5 5 6 7 7 5 5 4 2 3 5 3 2 2 4 4 3 4 3 2 2 2 2 2 2
2 2 0 1 6 5 3 0 5 1 2 5 1 3 4 3 8 1 2 4 7 5 6 7 7 7 6 9 10 10 9 9 9 7 6 7 8 8 8 9 8 6 8 11 9 8 9 9 5 5 6 6 5 5 6 6 4 3 5 5 6 6 6 4 3 2 1 3 6 5 6 7 7 7 6 4 5 7 4 3 2 2 4 3 2 2 4 3 3 3 5 3 2 2 2 2 2
2 2 1 1 2 6 5 4 4 3 7 5 1 2 6 1 1 1 3 5 4 5 5 6 6 8 9 12 10 8 9 10 11 8 7 6 6 6 6 6 7 8 10 11 9 9 10 8 6 3 5 5 4 4 5 3 4 4 2 4 6 4 3 4 3 2 1 2 2 2 3 6 5 5 5 5 3 3 4 4 3 2 5 4 3 3 3 2 1 1 3 4 2 2 1 2 1
3 3 0 1 3 4 4 5 7 7 3 2 0 6 3 3 2 3 2 5 3 3 9 7 7 12 11 9 9 10 10 11 9 12 11 8 7 10 13 11 10 12 10 10 9 8 9 9 5 2 3 4 3 5 3 4 4 3 5 2 1 4 6 5 3 2 2 3 2 2 1 2 5 6 4 3 5 4 4 6 5 4 4 5 6 6 4 4 3 2 3 3 2 1 1 1 1
3 1 3 2 4 5 3 3 1 0 2 4 3 5 0 1 1 0 1 3 2 8 9 8 10 11 9 8 8 9 10 12 11 7 8 9 10 11 12 11 12 11 10 11 10 9 8 8 6 2 1 0 1 2 4 3 3 4 2 5 4 2 3 3 3 4 4 3 2 4 3 2 1 3 3 2 4 6 3 4 4 3 3 3 4 5 5 4 3 2 2 3 2 2 1 1 1
3 1 1 3 7 4 7 4 7 2 3 3 5 4 1 1 2 1 3 5 4 10 10 10 10 8 7 8 9 7 8 8 8 9 14 14 11 10 11 11 12 11 11 12 9 9 9 9 7 4 4 4 2 6 3 3 6 4 4 3 4 5 5 5 3 6 8 6 5 5 5 3 2 2 3 4 1 0 4 5 3 3 2 2 2 3 4 4 4 4 4 4 3 2 2 1 1
1 1 5 6 8 6 4 3 3 0 1 1 5 1 1 3 3 1 3 4 5 11 9 8 8 7 7 7 7 8 9 8 8 10 10 8 7 8 10 10 10 9 7 9 9 9 11 9 8 7 6 6 6 7 4 5 4 6 6 8 6 7 8 8 10 10 8 7 7 7 6 6 6 5 5 5 5 4 5 5 3 2 3 3 3 4 5 4 5 5 3 3 3 2 1 1 1
0 4 2 8 7 7 2 1 2 1 1 2 1 4 3 3 2 6 5 4 7 12 8 6 5 5 5 6 6 7 8 9 11 9 8 8 8 9 10 11 10 8 7 7 10 12 8 7 6 7 8 9 9 7 10 9 7 8 8 9 11 11 10 10 9 8 8 8 8 9 7 7 6 7 6 6 5 5 6 6 5 4 4 4 4 3 3 2 3 2 2 1 1 1 1 1 1
1 0 2 1 5 5 2 1 4 0 1 1 0 3 6 2 2 8 9 3 5 6 4 5 5 6 6 6 6 7 8 8 8 9 10 9 8 8 9 9 10 10 7 8 11 10 10 10 8 7 9 10 12 12 9 11 13 12 11 11 10 10 10 9 9 9 9 8 8 9 8 7 7 7 6 7 7 7 7 6 4 4 4 5 5 4 4 3 3 4 3 3 2 2 2 2 2
3 2 4 3 2 5 9 2 0 1 2 4 2 1 7 3 3 8 6 4 8 9 4 5 6 6 6 6 7 7 7 7 8 9 10 9 9 8 9 11 10 10 10 8 8 8 11 12 11 11 11 12 11 11 12 12 11 11 11 10 10 11 11 10 10 10 9 9 9 9 10 8 8 7 7 6 7 7 6 6 3 4 5 5 5 4 5 4 4 5 5 4 5 4 5 4 2
5 2 4 3 1 5 8 1 1 2 1 4 2 3 5 0 3 6 5 4 7 9 6 6 6 7 6 6 6 6 7 9 9 10 11 10 9 8 8 9 10 10 9 10 9 9 11 12 12 13 12 11 12 12 13 12 12 13 12 11 11 11 10 8 9 9 9 9 9 10 10 8 9 11 9 8 8 7 5 6 6 6 6 6 5 4 4 3 4 5 5 5 4 0 2 3 2
3 2 4 3 3 2 2 4 0 4 1 2 3 1 6 3 1 5 7 5 7 9 6 5 5 5 5 5 6 6 7 7 9 10 11 10 8 9 8 8 9 9 9 10 9 8 8 8 8 8 9 11 10 11 11 11 11 12 11 11 13 14 12 10 9 9 10 9 9 9 8 8 9 9 9 8 6 7 6 7 6 6 5 6 5 4 4 3 3 3 3 2 1 2 2 1 2
4 3 0 4 2 4 7 1 1 3 3 0 0 3 9 5 4 7 6 5 9 7 4 4 5 5 5 5 5 6 6 7 7 7 8 8 9 8 7 8 8 9 8 9 10 8 8 9 8 9 9 8 7 7 11 10 12 12 11 12 13 12 10 10 9 11 9 9 10 10 10 10 10 10 9 8 8 7 8 8 7 7 6 5 4 4 4 5 5 4 3 2 1 1 2 1 2
4 7 4 3 3 4 5 5 4 1 4 3 4 7 9 6 3 4 5 5 8 5 4 5 5 5 5 5 4 5 5 6 5 6 7 7 7 8 8 7 6 7 8 9 10 11 10 10 7 9 10 7 7 8 6 8 9 9 9 9 12 10 9 10 12 10 9 11 10 11 11 11 11 11 11 9 9 8 8 7 7 7 6 6 7 7 6 5 4 5 5 4 4 2 2 2 1
4 4 3 4 5 7 1 3 3 1 1 7 6 5 6 8 2 3 1 3 6 5 6 5 4 4 4 4 4 4 5 5 5 5 6 8 8 8 7 7 7 7 10 10 10 11 11 8 9 11 7 7 7 7 8 7 8 8 10 11 10 8 9 9 11 9 10 10 11 11 12 11 11 12 11 11 10 9 8 8 8 8 6 6 5 5 4 6 6 5 3 3 4 4 2 2 2
2 2 3 6 4 8 2 2 2 2 3 3 1 2 8 6 1 3 2 3 5 4 4 4 4 3 3 3 4 5 3 2 6 7 9 9 9 10 8 7 9 11 10 10 11 9 8 9 10 7 7 9 9 8 8 10 8 8 10 8 9 8 9 10 10 10 9 8 11 11 11 10 10 10 9 8 9 9 8 8 9 9 8 8 8 9 10 8 7 7 5 4 2 3 4 4 4
2 3 2 3 8 4 6 1 2 2 2 7 3 2 8 4 3 4 4 4 2 2 2 1 3 3 3 3 4 4 5 5 6 7 7 8 9 9 7 7 7 6 7 8 6 8 10 9 7 7 7 8 8 7 8 9 8 7 9 7 8 10 9 8 8 7 8 11 11 11 10 10 11 11 11 11 10 10 10 10 9 8 10 8 9 9 9 10 9 9 8 7 6 3 1 2 5
4 2 2 10 2 2 4 1 1 2 1 2 1 4 9 2 4 5 3 2 3 4 4 5 3 3 3 4 3 4 5 5 7 7 7 7 7 7 8 8 7 6 6 7 8 8 7 7 8 8 8 7 6 7 9 9 11 11 11 11 10 10 8 6 8 8 9 11 12 10 11 10 11 11 11 11 10 11 11 10 9 9 9 9 8 9 10 10 9 9 8 8 5 6 6 4 4
2 6 5 5 3 5 6 3 1 1 1 1 1 4 8 0 3 1 3 3 4 3 4 4 4 3 2 2 4 5 4 4 4 5 6 7 8 8 7 6 5 6 7 7 6 6 5 7 8 8 7 7 6 6 6 6 8 9 8 9 8 8 7 8 9 11 9 9 9 12 10 10 11 11 11 12 11 10 10 10 9 9 9 9 8 8 8 7 7 7 7 7 8 5 6 4 4
2 6 11 10 5 5 2 2 1 6 2 3 1 3 3 3 2 2 2 1 2 1 4 3 2 4 3 5 4 3 3 3 3 4 4 5 5 5 6 6 6 6 7 7 5 6 6 7 8 8 7 7 7 7 5 6 6 7 6 8 10 10 10 9 10 8 8 9 9 6 10 10 10 11 11 11 11 10 10 10 10 10 9 9 8 7 7 7 9 9 8 6 7 7 3 5 6
1 5 8 10 4 3 2 2 3 1 1 1 1 1 5 6 2 3 2 2 3 2 2 0 2 2 3 3 2 2 2 3 4 4 4 5 5 5 5 5 5 6 7 5 6 6 7 7 7 8 7 7 6 6 6 7 9 9 12 11 10 9 10 7 5 5 6 6 7 9 8 9 10 10 10 10 10 10 10 10 9 9 9 9 8 8 9 8 7 8 7 8 6 6 6 6 7
4 1 5 4 5 6 5 5 6 2 1 3 1 2 4 3 5 3 0 4 2 2 1 2 3 2 2 2 1 2 2 2 2 2 3 3 3 3 4 5 5 6 5 5 7 6 8 8 8 8 7 8 7 6 8 6 10 9 11 11 9 9 9 9 6 6 5 6 8 9 8 8 9 10 9 10 10 9 9 9 9 9 9 9 8 8 8 7 7 7 8 7 7 7 7 6 6
3 2 4 6 7 6 6 5 4 0 0 5 3 1 2 4 5 3 2 3 1 4 5 6 6 4 4 2 2 1 1 0 1 2 2 2 3 4 4 5 5 5 5 6 6 6 6 7 8 9 10 8 8 8 8 7 8 9 9 9 11 7 8 7 6 5 7 5 10 7 8 8 8 9 9 9 9 9 8 9 9 9 9 9 8 8 8 8 9 9 9 9 9 8 7 6 6
0 7 8 7 7 6 5 5 5 1 1 5 5 4 3 6 4 2 2 2 8 8 9 9 7 6 5 4 4 4 2 2 1 1 1 2 2 3 3 3 5 5 5 5 6 6 7 7 9 10 11 7 7 7 7 9 8 7 9 9 13 8 7 6 6 7 7 6 9 8 7 8 7 8 9 10 10 10 9 9 8 9 8 8 8 8 8 9 8 8 7 7 8 9 6 7 7
7 5 7 5 7 4 3 6 3 3 1 7 5 3 4 4 4 7 6 8 7 7 3 4 5 6 6 6 7 6 5 4 3 1 2 2 1 3 4 5 4 5 5 5 6 6 6 7 7 12 9 7 6 7 8 9 8 7 8 9 10 10 8 7 8 8 7 8 8 7 7 7 7 7 7 8 9 9 8 9 8 8 8 7 8 8 8 8 7 7 6 7 9 9 7 7 7
5 2 4 4 2 6 4 4 5 1 5 5 1 3 1 7 5 6 8 4 5 13 12 13 11 11 10 9 7 6 6 5 3 3 3 3 4 4 4 5 4 4 5 6 6 6 6 7 7 13 9 8 7 7 9 9 8 8 8 9 10 8 8 7 9 9 7 8 7 7 5 6 7 7 7 7 8 8 8 8 8 8 8 8 8 7 7 7 6 6 6 6 6 7 7 7 7
2 5 5 5 3 5 2 3 2 4 5 1 3 1 2 9 7 2 3 9 7 7 5 14 15 12 11 9 8 7 6 5 5 5 4 3 5 5 4 4 4 5 5 5 5 5 6 7 8 13 10 7 7 7 9 9 8 8 8 8 8 7 8 9 9 9 6 7 6 7 7 7 6 7 8 8 8 9 7 8 9 8 8 8 8 8 8 8 7 7 7 8 7 8 7 6 6
3 6 5 6 1 1 3 4 1 6 5 4 0 0 4 2 7 7 8 6 4 4 3 3 12 15 13 11 8 7 6 6 6 5 5 5 5 4 3 3 4 4 4 5 5 6 6 7 8 12 9 7 7 8 8 9 9 8 7 7 8 7 8 8 7 8 6 6 5 6 6 6 6 7 6 7 5 6 6 6 6 6 6 6 7 7 7 6 6 6 6 7 7 6 6 7 6
8 2 6 7 8 6 4 4 4 3 3 1 4 1 6 5 4 2 2 3 5 4 4 4 4 6 6 6 6 6 6 6 6 6 6 6 5 4 4 4 4 5 5 5 5 6 6 7 8 11 10 7 7 8 8 9 7 7 6 7 7 6 7 7 7 6 6 6 5 6 6 5 6 5 5 4 5 5 5 5 6 6 6 6 6 5 5 5 5 5 5 5 5 5 5 5 5
0 3 5 6 6 6 3 3 3 2 2 3 2 6 4 5 0 4 3 2 2 3 3 4 7 8 7 7 8 8 7 7 7 7 6 6 5 5 4 5 5 5 5 5 6 6 7 7 8 8 10 8 7 8 7 8 7 6 7 9 8 8 6 7 6 5 5 6 6 6 6 5 5 4 4 4 5 4 5 5 5 5 5 5 5 5 5 5 5 5 4 4 5 3 4 4 4
5 5 5 5 1 8 6 2 2 1 3 8 3 6 4 4 1 2 4 1 2 1 3 6 7 8 8 8 8 8 8 8 8 8 7 7 5 5 5 5 5 5 5 6 7 6 8 8 8 9 8 7 7 7 7 7 6 7 7 8 7 8 8 8 7 7 7 5 5 5 5 4 4 4 4 3 4 4 4 5 5 5 5 5 5 5 4 4 4 4 4 5 6 5 5 6 6
9 2 7 2 2 3 3 3 1 5 3 8 4 7 3 2 5 1 1 2 4 3 5 5 6 7 10 10 9 10 10 10 8 7 6 6 6 6 6 5 6 7 7 7 7 6 5 6 8 10 8 9 7 7 7 7 7 8 7 7 7 7 7 7 7 7 5 5 5 4 4 4 5 4 4 3 4 5 5 5 4 4 4 4 5 5 5 5 5 5 5 4 5 4 5 4 5
3 2 3 4 2 1 2 4 3 2 4 6 5 1 6 8 6 2 7 7 9 8 6 6 10 11 13 11 11 10 9 9 8 8 7 7 8 7 7 8 7 7 7 7 6 6 5 5 5 7 9 8 8 6 6 5 5 6 5 6 7 7 6 6 5 6 5 6 6 5 5 4 4 5 5 5 5 5 5 5 4 5 5 5 5 5 5 5 6 5 6 5 6 6 6 7 6
3 1 3 1 2 1 6 5 3 4 4 3 7 1 8 7 6 13 10 13 10 9 9 12 15 16 15 14 13 14 13 11 9 9 9 8 8 8 8 9 9 9 8 7 7 5 7 6 6 6 5 5 5 6 5 6 5 6 6 6 5 5 6 6 5 6 6 6 5 5 5 6 6 5 5 5 5 5 6 6 5 5 5 5 5 5 5 5 5 5 5 5 6 6 6 6 7
1 2 1 1 2 1 4 1 4 3 4 4 3 10 2 4 5 8 9 9 12 16 16 13 13 14 13 13 14 13 13 11 10 9 9 8 8 8 8 8 7 6 5 6 6 7 7 6 7 7 9 7 6 5 6 6 6 6 7 8 6 6 6 5 7 6 6 6 5 5 5 4 4 6 5 5 5 5 6 5 6 6 6 6 7 7 6 6 6 7 6 7 7 7 8 7 7
9 10 8 10 7 3 3 6 3 1 3 6 2 12 7 4 3 5 5 5 8 11 11 12 12 12 13 13 14 11 8 7 8 9 9 8 8 8 8 6 5 6 7 8 7 7 7 8 7 7 6 6 8 6 7 6 4 5 8 7 6 5 5 5 7 6 7 6 5 5 4 4 6 5 5 5 5 5 5 5 5 6 6 6 6 6 7 6 7 7 7 5 6 8 8 8 7
Wind_Direction
11 358 346 62 66 112 61 3 160 342 59 40 313 24 82 303 283 336 261 337 337 239 193 315 192 167 248 223 198 203 205 120 209 105 53 240 181 235 207 205 240 262 168 162 175 178 185 189 176 168 168 171 167 166 160 157 154 148 142 146 149 150 155 154 148 144 142 139 135 135 131 128 127 124 119 111 108 101 99 106 113 112 106 103 102 98 93 87 82 79 78 74 68 62 57 53 50
40 4 44 359 17 49 214 161 95 346 45 83 193 112 253 287 344 214 257 187 203 150 207 231 267 309 7 48 181 253 243 232 176 219 276 235 293 266 218 204 210 193 166 163 172 176 181 184 177 168 169 168 169 168 160 160 157 148 150 155 154 156 162 157 152 149 146 146 143 138 136 133 130 126 126 119 113 110 107 110 117 112 107 103 106 103 95 89 80 75 72 70 64 58 53 49 45
24 23 31 34 29 65 100 25 250 12 89 78 280 203 338 297 234 260 227 219 223 278 308 291 165 214 71 323 358 135 6 275 294 265 244 305 323 18 273 200 198 199 169 164 166 174 182 183 177 170 173 165 170 169 164 162 160 153 155 158 158 162 167 162 157 154 151 149 146 144 140 138 135 132 129 126 120 116 113 114 116 116 108 100 102 101 98 89 83 77 72 69 65 59 53 47 40
101 27 114 67 238 26 56 31 82 128 114 176 330 283 192 181 250 226 248 255 266 310 285 200 145 214 138 13 245 39 293 345 196 165 276 16 278 315 326 186 183 176 163 167 171 170 180 182 181 176 176 164 171 168 168 165 164 159 160 159 159 165 172 165 162 159 155 154 153 149 149 145 144 143 138 135 129 124 119 120 118 115 112 116 111 99 93 89 82 78 76 72 67 61 54 48 41
70 30 67 112 115 354 104 100 129 95 130 204 121 257 254 223 259 269 273 278 282 202 168 169 104 270 181 190 144 117 54 251 298 191 264 262 301 278 254 176 153 162 168 173 169 172 183 180 183 186 173 171 174 166 168 168 165 162 162 162 162 168 177 170 164 163 166 160 158 154 157 154 150 152 146 141 140 130 128 126 124 119 115 111 103 94 89 90 89 83 73 72 69 64 56 47 38
68 40 10 91 61 157 62 75 71 79 220 158 121 191 211 223 218 234 288 307 285 191 159 83 114 233 355 260 192 207 208 23 175 251 192 260 327 336 177 157 150 165 163 170 171 170 182 183 183 189 179 174 177 170 167 168 169 166 165 165 168 173 181 174 169 168 169 165 161 160 163 159 156 152 146 144 147 135 130 131 131 124 123 126 113 96 94 94 90 84 83 77 72 69 59 50 39
322 51 357 34 53 48 165 120 164 171 204 164 190 234 232 265 231 350 323 29 283 90 5 343 47 79 63 318 326 240 207 348 22 264 173 318 324 299 149 146 150 159 154 173 173 170 181 186 188 192 185 176 179 171 171 170 173 169 169 170 171 178 182 177 176 172 173 170 166 168 165 162 158 144 139 136 133 136 134 136 133 133 135 119 100 97 99 100 74 90 91 80 74 67 58 51 43
90 95 319 109 324 46 51 153 176 179 19 192 261 249 263 246 177 155 283 56 357 82 348 263 305 109 250 47 65 281 324 208 270 322 300 317 319 156 153 146 155 164 167 164 176 169 182 192 194 197 196 182 183 177 172 175 178 173 171 177 176 179 185 183 178 181 180 174 176 175 166 165 150 146 142 143 150 147 141 137 132 134 138 119 99 81 75 76 70 88 98 86 76 66 57 50 44
7 89 265 74 46 22 73 95 281 249 288 294 270 227 278 274 198 152 17 245 285 120 315 315 263 38 249 343 201 269 299 278 308 316 329 333 109 135 145 147 161 163 167 165 168 168 181 195 198 200 204 191 189 181 179 182 184 175 177 179 181 183 187 188 185 189 185 183 183 183 176 169 152 149 153 151 155 154 144 138 134 131 118 94 96 90 78 52 39 68 101 85 76 67 59 53 46
51 33 306 114 135 38 9 281 102 177 235 241 266 286 242 236 231 178 260 37 290 322 243 319 266 3 311 304 318 18 2 345 304 32 14 6 347 107 138 125 150 166 164 181 173 178 180 197 200 206 209 200 191 188 182 187 187 181 179 182 184 187 186 187 188 190 195 191 189 195 179 178 161 159 158 157 153 138 139 135 124 118 107 98 92 82 73 60 43 100 93 85 75 67 60 51 48
4 18 134 77 26 88 175 228 275 315 272 319 291 252 241 194 200 128 146 254 260 233 311 158 86 257 51 279 219 260 324 2 35 3 338 334 334 137 148 98 149 164 171 181 187 180 188 195 201 209 210 211 197 192 185 185 187 183 182 180 184 187 183 185 187 187 195 197 190 207 196 171 169 167 167 159 150 145 145 153 133 127 117 107 96 81 65 73 92 95 87 76 71 65 58 52 48
334 25 9 101 131 154 236 150 284 287 299 326 123 333 186 157 161 53 354 15 328 327 276 156 352 153 46 320 144 337 328 24 6 308 311 332 356 340 146 29 145 161 176 178 179 184 191 192 199 208 213 213 210 195 187 186 192 186 179 181 182 186 185 180 184 186 187 191 184 202 206 179 181 181 174 159 152 153 158 144 142 130 109 95 85 78 83 91 90 89 84 80 71 60 56 56 46
99 97 73 76 161 172 159 211 245 293 331 306 103 76 213 144 247 174 191 193 86 356 10 202 208 110 299 264 278 323 37 346 347 321 330 338 329 317 27 50 26 131 163 167 182 193 191 203 203 205 208 212 216 208 190 184 188 189 181 183 186 186 187 181 180 184 187 184 186 205 191 148 170 190 161 157 155 157 160 152 148 126 110 101 92 88 89 89 87 85 81 72 68 61 57 52 49
113 182 129 155 28 114 148 300 320 144 295 210 271 293 255 119 229 186 129 34 330 67 255 75 116 175 299 37 323 345 301 332 340 342 324 352 353 9 33 14 31 32 38 192 214 213 210 212 215 213 210 212 211 208 204 194 183 186 186 184 186 186 187 188 179 176 185 188 174 142 116 144 155 161 147 148 146 147 154 131 135 118 110 105 100 91 94 90 87 84 79 73 63 62 53 47 40
113 171 82 114 49 85 247 90 179 135 142 172 306 11 351 222 113 117 117 115 323 215 295 178 219 88 242 51 298 326 322 335 331 324 336 2 31 40 33 32 34 12 10 359 281 260 234 237 228 222 216 214 212 206 196 193 195 180 183 182 186 185 188 189 184 177 176 182 174 122 151 164 167 145 131 148 147 148 133 121 115 116 121 111 99 94 98 93 87 83 79 75 68 60 55 41 30
138 90 77 104 271 121 215 165 258 103 238 197 334 175 80 327 212 97 260 176 261 279 10 243 207 243 154 142 293 345 327 322 316 323 357 20 3 49 41 39 29 44 16 13 350 304 284 243 242 231 220 214 214 211 193 177 192 187 180 184 189 191 185 186 180 174 172 173 153 156 160 144 163 147 143 155 161 143 132 122 114 111 103 97 99 103 99 96 92 87 79 73 71 67 56 46 30
76 80 51 34 343 186 243 166 155 166 250 273 299 34 30 281 285 241 292 40 279 292 356 254 210 10 197 59 6 328 338 325 353 29 29 18 2 2 1 17 355 10 16 5 320 322 294 256 239 236 227 219 215 208 198 192 179 185 174 182 189 187 183 187 184 171 165 149 142 146 151 150 168 147 155 172 153 144 135 123 116 103 94 86 93 98 106 110 103 93 83 78 76 67 59 48 34
51 58 112 52 207 131 196 175 191 195 161 279 334 133 85 337 336 323 129 8 36 302 305 296 314 257 256 29 23 4 354 26 20 45 32 29 12 6 2 354 2 348 334 332 332 303 302 262 240 233 226 221 216 205 196 191 172 184 187 179 193 189 178 185 210 202 169 169 141 143 163 156 164 181 150 150 146 161 130 124 122 113 106 116 100 80 118 114 113 103 94 89 78 71 60 48 34
81 140 79 250 185 241 156 201 200 138 273 241 257 268 164 248 108 299 23 305 353 338 314 6 324 323 357 22 5 12 7 31 31 43 45 35 23 19 3 342 346 344 345 343 327 340 297 269 246 226 224 214 215 215 199 183 178 173 196 173 183 199 188 182 192 199 188 181 183 184 168 173 158 153 177 134 104 179 157 141 130 125 132 106 61 88 115 116 108 105 100 91 82 72 65 51 45
229 113 213 257 208 253 224 186 214 205 83 306 314 17 132 248 121 287 333 277 343 308 307 342 56 257 328 350 2 1 20 30 36 36 39 35 27 16 4 354 340 338 325 323 313 307 297 270 253 241 226 214 210 212 207 189 179 163 177 186 188 201 231 206 175 187 200 191 145 158 166 164 172 183 146 137 133 129 99 121 136 134 137 86 101 106 112 123 103 87 93 87 76 63 69 53 47
226 83 167 227 186 110 221 193 238 228 182 266 267 239 302 274 212 67 198 337 283 261 238 213 295 340 336 358 6 7 18 27 27 33 32 25 21 24 9 348 331 321 317 309 305 310 315 299 263 244 229 216 209 212 203 193 176 173 173 164 178 198 232 205 203 188 192 178 173 176 179 169 175 172 152 151 152 144 143 150 178 158 165 127 139 150 124 105 102 111 81 68 76 79 69 53 36
118 207 195 158 143 288 242 202 199 169 209 195 319 334 297 158 86 147 134 272 291 265 334 335 35 65 37 4 3 16 24 27 22 23 24 20 11 359 352 344 325 283 301 321 324 314 313 306 281 252 230 215 209 203 210 191 165 185 175 180 182 185 195 238 228 209 199 181 183 181 174 169 165 157 152 148 138 151 157 188 190 180 133 139 184 125 143 141 126 113 93 90 79 73 70 67 50
225 319 222 210 199 231 263 164 219 155 41 331 302 258 349 62 285 210 155 205 316 23 31 69 69 69 70 58 27 23 26 29 26 22 13 11 2 356 353 343 344 341 338 339 333 324 316 309 297 260 235 215 204 187 197 189 185 171 178 179 210 221 253 241 69 325 212 206 199 182 173 177 174 169 183 183 173 169 156 146 210 216 156 115 66 110 86 104 107 111 103 86 90 86 81 65 61
115 229 15 292 180 221 187 198 123 190 135 262 198 353 311 340 321 207 69 359 57 46 53 70 70 59 42 47 29 32 25 23 22 17 14 7 355 348 347 344 340 330 353 351 343 333 331 325 307 279 237 222 199 188 192 194 174 162 173 173 207 220 209 200 93 113 65 250 205 197 199 184 175 181 190 200 208 169 180 125 95 52 64 70 68 89 103 90 116 105 115 105 99 73 77 64 63
132 284 211 228 159 246 289 275 280 231 245 271 21 298 263 175 228 56 360 35 25 59 53 52 59 59 46 47 35 28 31 21 17 7 12 10 1 337 349 350 351 359 1 353 340 341 339 330 319 280 225 236 181 174 184 176 158 169 222 188 194 147 175 200 176 137 122 160 64 326 235 187 192 188 184 166 143 126 104 117 121 137 114 111 109 67 72 76 89 103 96 103 86 85 85 71 51
178 212 161 310 268 301 279 307 269 258 263 149 75 249 299 288 155 61 321 58 32 80 59 33 47 51 42 39 31 30 30 26 11 13 5 350 356 4 11 3 360 7 356 343 339 336 340 341 348 338 223 211 221 158 178 150 150 145 164 226 345 179 193 181 121 103 91 67 40 121 113 272 195 188 177 152 158 155 147 133 139 180 147 154 160 148 144 141 133 144 116 96 97 90 88 66 38
158 194 205 256 278 351 289 206 262 200 231 176 227 284 276 334 77 342 131 11 65 55 48 33 45 48 35 36 33 30 33 25 17 348 8 10 11 13 1 357 4 355 352 356 348 345 335 357 16 16 103 39 324 107 129 117 95 113 112 153 136 93 27 37 47 106 125 94 123 107 142 143 189 116 136 138 180 162 151 128 129 184 165 171 175 129 124 132 126 118 104 103 118 139 104 70 33
56 175 293 285 318 263 256 288 291 241 291 178 204 258 61 318 66 135 340 17 60 74 43 33 39 38 30 30 38 28 37 25 16 17 20 9 5 356 354 0 349 346 359 353 346 341 349 5 21 36 68 55 5 134 88 79 103 99 90 62 52 52 57 50 27 39 25 31 35 39 37 16 14 37 83 135 319 242 152 142 151 180 153 111 58 79 93 100 109 94 98 109 116 127 125 109 73
158 54 331 300 344 344 344 329 339 329 274 152 162 282 9 2 108 293 51 65 76 70 54 37 36 31 29 28 37 36 31 21 21 28 17 7 354 354 354 353 349 345 345 348 346 356 2 354 14 28 57 59 54 65 87 112 67 57 44 41 43 45 44 42 39 36 36 39 40 37 39 39 40 51 54 49 80 48 21 6 18 20 64 91 99 107 118 115 112 114 94 119 118 126 121 123 136
169 32 77 327 358 330 324 350 352 46 276 63 302 314 291 5 312 309 316 141 62 56 39 31 32 28 27 30 36 38 29 25 26 22 9 3 360 358 358 350 352 357 345 346 358 11 2 5 10 29 38 56 58 56 50 47 55 61 54 53 45 44 43 50 47 43 42 41 43 38 34 39 46 53 56 55 48 57 52 50 39 42 48 56 55 52 60 51 87 100 94 140 120 92 51 32 335
240 253 60 310 4 281 279 59 313 51 76 22 48 224 284 251 330 343 345 209 99 85 50 30 28 27 28 27 31 35 33 32 25 16 11 5 1 2 357 351 358 0 352 358 14 3 18 22 20 39 41 51 52 57 65 64 54 56 54 52 55 57 51 52 46 45 45 42 51 48 39 39 49 52 53 68 60 62 66 70 37 49 54 61 57 35 49 43 37 42 22 354 13 19 12 12 357
23 25 301 322 152 277 301 340 39 154 358 30 104 99 250 148 331 350 342 43 106 92 71 48 34 34 31 25 30 28 26 20 20 19 12 3 5 1 359 358 356 2 7 357 358 9 33 36 32 44 47 55 62 67 67 74 76 70 68 65 65 60 58 49 47 43 40 40 44 46 41 26 46 44 45 58 75 67 73 75 64 70 75 79 76 69 71 67 65 72 62 32 0 1 358 2 15
353 149 269 272 26 266 330 18 343 298 90 12 128 233 326 209 250 340 11 61 86 96 63 41 38 37 34 31 30 28 19 14 16 14 7 1 0 359 358 1 4 0 3 6 6 19 35 36 37 48 47 55 67 70 73 71 73 70 66 65 64 61 57 50 53 47 42 40 38 43 34 28 38 45 43 42 57 55 52 59 48 52 56 65 71 71 70 90 103 116 131 130 126 195 341 316 328
282 25 209 208 193 258 282 302 17 12 98 176 10 238 239 170 65 5 17 28 85 76 66 46 50 45 39 38 38 31 32 20 17 3 356 357 353 355 1 3 3 3 7 14 14 17 24 19 24 32 43 58 66 74 76 74 72 73 67 67 60 59 51 49 47 43 40 39 41 40 31 34 36 47 44 42 57 60 57 54 49 44 54 60 59 66 70 36 45 32 64 30 103 122 172 218 258
208 140 213 286 257 217 250 293 243 8 11 358 294 230 269 248 78 36 13 22 83 84 80 74 57 48 38 43 40 36 35 32 14 359 352 352 355 356 3 4 6 10 15 16 20 20 25 25 26 31 24 23 37 56 73 79 78 76 70 64 61 59 54 52 49 46 34 36 37 31 25 31 27 34 40 37 46 45 50 44 43 31 41 51 58 35 44 44 37 26 52 66 31 351 337 319 310
193 168 179 162 210 232 211 238 273 166 274 297 236 246 262 268 13 22 26 38 86 105 93 69 56 48 45 45 41 42 36 34 3 352 356 359 1 0 5 3 10 17 20 20 27 28 26 25 22 34 25 15 39 46 51 66 63 58 64 58 52 41 43 45 46 43 33 38 31 33 32 31 27 30 27 25 40 40 42 36 37 30 33 44 47 42 34 38 25 39 40 20 3 1 19 340 307
103 100 115 201 217 272 285 247 260 327 347 249 260 254 260 281 322 307 327 70 67 67 67 62 51 49 46 41 46 40 46 32 332 353 8 5 5 6 5 9 9 23 28 22 34 31 31 23 34 37 22 28 45 53 50 50 68 79 61 59 63 48 47 53 52 41 43 40 37 39 38 37 32 34 31 32 34 44 46 43 43 39 43 51 57 57 49 44 32 34 32 29 6 351 25 1 323
157 137 181 266 185 260 231 263 4 302 171 294 24 303 271 256 202 336 341 79 52 52 74 74 71 64 48 53 45 28 12 346 7 17 8 9 7 5 6 15 8 27 12 22 33 29 33 34 46 40 29 45 45 54 72 67 59 66 85 73 78 57 47 47 49 43 43 44 43 42 42 41 44 46 43 44 46 45 45 44 41 37 32 41 49 43 39 37 26 27 13 17 53 11 3 356 342
105 199 208 276 258 240 289 290 357 318 130 264 23 312 271 269 107 31 44 62 66 28 33 64 86 50 43 35 38 37 38 23 20 17 12 10 4 5 11 12 18 22 22 32 25 41 37 39 37 39 39 46 48 55 67 77 73 67 82 83 78 81 62 63 65 58 49 54 47 43 41 39 39 41 36 39 42 37 41 44 39 38 38 31 40 40 36 36 28 27 23 24 356 46 353 24 359
181 113 158 236 201 155 290 288 352 356 97 294 13 330 283 81 49 62 30 52 78 48 63 54 53 71 56 46 37 43 38 20 24 12 7 2 4 7 12 14 6 14 26 28 24 41 44 43 40 41 42 41 48 50 77 83 86 89 81 86 82 77 82 76 73 57 51 50 46 41 42 39 40 44 36 36 41 40 38 40 38 38 38 34 38 41 33 30 24 22 20 25 23 20 12 12 41
250 194 211 240 196 229 191 238 275 314 54 82 314 310 299 343 177 60 60 76 80 19 61 60 49 54 53 70 57 46 44 27 24 12 9 7 10 10 6 358 353 27 28 29 22 36 47 50 51 51 50 47 48 49 60 94 106 94 97 93 93 98 73 59 53 45 42 49 52 39 36 37 41 45 39 39 41 42 39 39 41 39 41 34 38 43 40 33 30 30 20 29 33 27 15 1 11
302 230 205 222 203 205 282 358 20 12 329 0 63 357 303 311 314 164 152 196 53 345 82 43 39 41 44 49 41 21 33 32 49 25 7 2 6 357 7 1 17 26 30 17 13 36 53 60 61 61 61 52 49 57 67 78 74 92 95 78 66 62 60 45 46 46 40 42 51 49 44 39 42 47 44 42 41 41 42 38 39 42 39 36 36 45 38 31 27 24 19 23 30 25 22 29 11
116 267 198 221 180 154 142 122 98 265 154 353 45 168 262 321 293 185 186 120 66 20 53 343 42 54 57 60 31 27 8 19 25 30 19 24 6 14 13 17 4 34 21 5 21 44 58 67 70 70 69 64 49 57 64 86 81 76 78 82 87 83 94 73 72 60 66 64 63 53 50 44 40 46 46 45 44 44 46 42 42 43 42 39 31 38 38 31 27 26 11 28 27 18 22 42 28
221 239 140 143 150 178 186 149 167 202 269 299 30 136 219 298 279 12 227 147 32 41 287 280 205 138 101 88 12 20 15 358 15 21 15 10 9 3 25 4 9 19 6 13 41 38 54 59 69 70 68 66 53 57 68 63 91 93 95 92 86 89 84 98 87 81 71 69 67 56 54 49 44 43 44 43 42 42 42 45 41 43 45 39 34 39 36 25 29 29 32 30 32 33 25 33 25
220 183 130 151 164 177 139 138 152 161 61 275 304 249 327 252 265 359 22 294 319 258 243 226 207 201 187 172 174 246 232 291 186 73 25 354 7 14 12 24 8 20 14 28 35 41 49 59 67 66 61 58 50 51 72 66 81 94 95 105 95 82 91 96 99 83 77 66 71 58 56 52 51 47 45 44 42 42 40 43 40 43 43 39 36 36 33 30 31 29 22 25 25 28 30 20 30
205 112 84 80 76 69 116 114 119 330 92 261 249 183 228 278 281 337 0 281 266 219 217 210 198 193 188 188 203 198 220 201 236 218 317 8 360 15 360 26 38 15 8 23 40 47 51 63 70 69 62 55 54 64 75 75 72 80 87 87 95 98 94 93 82 75 68 58 67 57 53 51 45 44 41 39 39 37 38 35 37 39 38 38 38 36 28 27 26 30 30 30 26 31 28 29 35
128 107 80 38 40 43 40 66 89 70 305 247 241 264 179 291 249 213 151 211 199 167 221 196 185 200 209 204 192 186 181 188 182 212 26 14 332 28 35 58 37 27 21 39 52 51 61 72 80 75 61 61 58 69 74 74 71 67 81 85 91 97 91 88 81 67 62 57 63 57 55 57 53 51 46 44 43 37 39 38 36 36 37 36 35 30 28 23 19 18 19 27 32 28 20 17 24
122 123 128 93 17 7 34 344 27 122 268 260 330 210 112 180 284 267 229 273 203 165 182 181 184 195 199 194 195 194 192 190 185 156 135 79 83 62 52 67 53 49 49 53 60 61 69 80 89 86 67 61 64 73 77 76 78 78 80 87 90 90 92 86 80 79 67 70 65 65 62 60 53 54 47 44 38 34 38 39 36 35 35 32 34 31 29 25 20 20 25 25 25 25 21 19 18
85 91 66 120 244 35 300 16 266 203 206 267 355 349 312 242 229 224 220 214 218 220 191 179 178 188 194 195 190 191 189 177 186 178 169 177 143 128 113 108 81 75 84 72 79 85 83 86 89 93 80 66 66 72 81 84 84 82 89 92 94 95 91 89 86 83 73 73 67 66 57 57 47 46 37 39 30 26 30 34 31 29 27 26 23 26 21 19 18 20 21 19 21 22 16 9 18
137 158 136 97 73 54 258 281 275 308 285 278 47 41 251 263 280 227 205 209 205 223 252 206 182 182 185 185 186 184 188 189 191 188 192 186 182 171 168 142 124 118 96 98 99 97 99 94 90 93 94 77 79 81 85 88 79 82 84 90 90 93 88 87 85 89 84 81 79 76 69 65 62 56 48 45 32 28 37 38 37 36 33 26 25 22 19 17 16 20 15 16 12 13 8 8 5
206 105 144 179 142 156 219 182 212 223 188 283 281 70 232 134 235 7 253 308 295 268 260 255 204 186 171 164 167 176 184 199 192 195 198 193 190 186 183 183 168 148 145 127 121 114 110 103 103 104 104 94 92 92 91 90 91 89 91 93 94 91 96 90 88 87 88 86 76 77 69 64 63 57 54 47 35 39 38 35 35 36 29 25 20 21 17 15 15 14 18 15 6 8 6 1 355
304 174 86 95 226 146 217 199 158 220 321 329 200 212 184 181 300 308 318 302 336 337 243 172 179 164 155 165 184 187 195 200 198 198 206 206 198 197 195 193 190 172 162 157 140 134 123 122 117 113 115 120 111 105 96 100 103 110 104 97 92 91 90 91 89 84 78 76 76 74 71 67 65 62 60 50 36 40 35 30 31 32 25 23 20 17 13 12 4 6 7 8 4 355 354 352 348
202 114 193 206 130 105 96 90 63 83 56 256 142 302 296 306 301 348 344 72 326 352 180 177 177 170 165 189 190 198 203 202 199 199 196 194 193 206 199 197 189 184 178 170 164 158 145 137 132 122 118 118 118 114 117 119 123 113 97 91 93 92 90 90 93 89 85 75 77 75 78 77 79 64 60 56 44 37 35 33 26 26 21 17 15 12 6 4 358 2 6 356 356 354 352 351 346
99 182 227 163 156 117 128 228 35 63 196 272 90 219 271 82 270 18 9 296 267 254 189 198 177 170 190 199 196 203 205 204 201 198 189 191 193 194 199 204 197 191 181 173 171 169 155 145 140 133 135 131 137 135 132 133 122 105 100 88 79 87 93 91 92 95 91 89 76 74 77 76 62 58 56 52 47 40 34 26 27 18 17 9 10 2 1 355 354 358 354 354 342 337 338 340 341
149 197 195 120 186 142 325 86 275 253 257 272 290 272 257 178 232 108 241 213 228 207 200 180 196 195 203 199 205 210 211 205 199 195 192 194 193 196 195 198 197 199 193 184 168 161 155 149 153 146 144 146 149 143 129 112 106 102 96 94 100 94 89 91 91 89 85 79 72 66 67 70 66 49 47 42 38 37 32 25 26 19 17 14 10 5 359 360 355 352 349 347 342 343 342 336 334
25 69 61 331 99 142 132 192 176 117 275 18 279 127 265 190 213 181 205 205 201 168 184 210 204 199 195 199 200 200 205 202 192 193 195 191 193 195 193 192 194 191 187 186 172 160 166 170 162 156 137 134 131 127 126 116 110 110 108 98 78 86 87 92 87 85 74 70 66 58 51 48 45 40 39 35 34 30 22 19 16 15 11 10 9 6 360 359 350 356 347 344 342 340 333 329 324
48 88 309 50 30 232 98 35 130 183 183 205 267 300 271 256 202 178 208 198 186 176 194 204 207 204 206 203 197 201 201 194 193 191 188 186 189 196 203 204 199 189 179 170 171 174 177 169 166 167 155 150 136 142 126 120 122 117 110 100 101 99 97 93 84 76 77 67 61 54 50 50 46 43 34 30 30 24 18 14 8 11 9 1 2 358 358 356 352 351 350 342 340 341 335 328 325
164 164 190 174 130 131 154 248 54 84 148 235 167 259 277 259 146 196 197 228 190 206 192 198 204 203 200 204 209 204 200 195 192 191 183 183 188 196 201 199 194 181 181 177 184 176 173 179 178 167 152 151 144 143 135 142 129 120 107 111 104 100 96 87 83 72 69 64 55 53 47 47 50 34 30 26 24 18 14 9 9 7 5 0 359 357 355 354 349 347 343 343 337 336 329 322 321